| time (UTC) | temp F | wind direction | speed MPH | gust MPH | rain 1hr in | rain 24hr in | rain mn in | humidity % | barometer mb |
| 20260509173827 | 57 | 328 | 1.0 | 1.0 | 0.00 | 0.00 | 0.00 | 80 | 1007.0 |
| 20260509173327 | 56 | 87 | 1.0 | 1.0 | 0.00 | 0.00 | 0.00 | 81 | 1007.0 |
| 20260509172827 | 56 | 18 | 1.0 | 2.0 | 0.00 | 0.00 | 0.00 | 80 | 1007.1 |
| 20260509172327 | 56 | 273 | 1.0 | 2.0 | 0.00 | 0.00 | 0.00 | 80 | 1007.1 |
| 20260509171827 | 56 | 92 | 3.0 | 6.0 | 0.00 | 0.00 | 0.00 | 80 | 1007.1 |
| 20260509171327 | 56 | 291 | 0.0 | 0.0 | 0.00 | 0.00 | 0.00 | 82 | 1007.2 |
| 20260509170827 | 55 | 341 | 1.0 | 1.0 | 0.00 | 0.00 | 0.00 | 82 | 1007.2 |
| 20260509170327 | 55 | 137 | 1.0 | 1.0 | 0.00 | 0.00 | 0.00 | 83 | 1007.3 |
| 20260509165827 | 54 | 248 | 1.0 | 2.0 | 0.00 | 0.00 | 0.00 | 85 | 1007.2 |
| 20260509165327 | 54 | 101 | 1.0 | 1.0 | 0.00 | 0.00 | 0.00 | 86 | 1007.4 |
| 20260509164827 | 54 | 114 | 0.0 | 1.0 | 0.00 | 0.00 | 0.00 | 86 | 1007.5 |
| 20260509164327 | 54 | 337 | 1.0 | 1.0 | 0.00 | 0.00 | 0.00 | 86 | 1007.6 |
| 20260509163827 | 54 | 86 | 0.0 | 0.0 | 0.00 | 0.00 | 0.00 | 86 | 1007.6 |
| 20260509163328 | 55 | 259 | 1.0 | 2.0 | 0.00 | 0.00 | 0.00 | 85 | 1007.7 |
| 20260509162827 | 55 | 328 | 0.0 | 1.0 | 0.00 | 0.00 | 0.00 | 85 | 1007.7 |
| 20260509162327 | 55 | 0 | 0.0 | 0.0 | 0.00 | 0.00 | 0.00 | 86 | 1007.8 |
| 20260509161828 | 54 | 154 | 0.0 | 0.0 | 0.00 | 0.00 | 0.00 | 86 | 1007.8 |
| 20260509161327 | 54 | 6 | 0.0 | 1.0 | 0.00 | 0.00 | 0.00 | 86 | 1007.9 |
| 20260509160827 | 54 | 0 | 0.0 | 0.0 | 0.00 | 0.00 | 0.00 | 87 | 1008.0 |
| 20260509160327 | 54 | 296 | 0.0 | 0.0 | 0.00 | 0.00 | 0.00 | 86 | 1008.1 |
| 20260509155827 | 54 | 36 | 0.0 | 1.0 | 0.00 | 0.00 | 0.00 | 86 | 1008.1 |
| 20260509154936 | 54 | 297 | 0.0 | 0.0 | 0.00 | 0.00 | 0.00 | 86 | 1008.2 |
| 20260509154328 | 54 | 266 | 1.0 | 1.0 | 0.00 | 0.00 | 0.00 | 87 | 1008.3 |
| 20260509153827 | 54 | 0 | 0.0 | 0.0 | 0.00 | 0.00 | 0.00 | 86 | 1008.3 |
| 20260509153327 | 54 | 285 | 0.0 | 0.0 | 0.00 | 0.00 | 0.00 | 86 | 1008.3 |
| 20260509152828 | 54 | 74 | 0.0 | 0.0 | 0.00 | 0.00 | 0.00 | 85 | 1008.4 |
| 20260509152328 | 54 | 0 | 0.0 | 0.0 | 0.00 | 0.00 | 0.00 | 84 | 1008.5 |
| 20260509151828 | 54 | 352 | 0.0 | 0.0 | 0.00 | 0.00 | 0.00 | 85 | 1008.6 |
| 20260509151327 | 54 | 301 | 1.0 | 1.0 | 0.00 | 0.00 | 0.00 | 85 | 1008.7 |
| 20260509150827 | 55 | 342 | 1.0 | 1.0 | 0.00 | 0.00 | 0.00 | 85 | 1008.6 |
| 20260509150327 | 55 | 46 | 0.0 | 0.0 | 0.00 | 0.00 | 0.00 | 83 | 1008.6 |
| 20260509145828 | 55 | 268 | 0.0 | 1.0 | 0.00 | 0.00 | 0.00 | 84 | 1008.6 |
| 20260509145328 | 55 | 266 | 0.0 | 0.0 | 0.00 | 0.00 | 0.00 | 84 | 1008.5 |
| 20260509144827 | 55 | 0 | 0.0 | 0.0 | 0.00 | 0.00 | 0.00 | 83 | 1008.4 |
| 20260509144327 | 55 | 110 | 1.0 | 2.0 | 0.00 | 0.00 | 0.00 | 84 | 1008.3 |
| 20260509143827 | 55 | 120 | 1.0 | 1.0 | 0.00 | 0.00 | 0.00 | 85 | 1008.2 |
| 20260509143327 | 54 | 83 | 2.0 | 3.0 | 0.00 | 0.00 | 0.00 | 85 | 1008.1 |
| 20260509142827 | 54 | 0 | 1.0 | 2.0 | 0.00 | 0.00 | 0.00 | 86 | 1008.2 |
| 20260509142327 | 53 | 137 | 2.0 | 2.0 | 0.00 | 0.00 | 0.00 | 87 | 1008.1 |
| 20260509141827 | 53 | 220 | 1.0 | 1.0 | 0.00 | 0.00 | 0.00 | 88 | 1008.2 |
| 20260509141329 | 52 | 51 | 2.0 | 2.0 | 0.00 | 0.00 | 0.00 | 88 | 1008.3 |
| 20260509140827 | 51 | 10 | 1.0 | 2.0 | 0.00 | 0.00 | 0.00 | 88 | 1008.5 |
| 20260509140327 | 51 | 248 | 0.0 | 1.0 | 0.00 | 0.00 | 0.00 | 90 | 1008.6 |
| 20260509135827 | 50 | 11 | 1.0 | 1.0 | 0.00 | 0.00 | 0.00 | 88 | 1008.7 |
| 20260509135328 | 50 | 318 | 0.0 | 0.0 | 0.00 | 0.00 | 0.00 | 87 | 1008.8 |
| 20260509134830 | 50 | 324 | 0.0 | 1.0 | 0.00 | 0.00 | 0.00 | 87 | 1009.0 |
| 20260509134328 | 50 | 72 | 0.0 | 0.0 | 0.00 | 0.00 | 0.00 | 88 | 1009.1 |
| 20260509133828 | 50 | 252 | 1.0 | 1.0 | 0.00 | 0.00 | 0.00 | 85 | 1009.1 |
| 20260509133327 | 51 | 261 | 1.0 | 1.0 | 0.00 | 0.00 | 0.00 | 87 | 1009.0 |
| 20260509132827 | 51 | 0 | 0.0 | 0.0 | 0.00 | 0.00 | 0.00 | 90 | 1008.8 |
| 20260509132327 | 51 | 115 | 1.0 | 1.0 | 0.00 | 0.00 | 0.00 | 91 | 1008.8 |
| 20260509131827 | 50 | 319 | 0.0 | 1.0 | 0.00 | 0.00 | 0.00 | 90 | 1008.9 |
| 20260509131327 | 50 | 342 | 1.0 | 1.0 | 0.00 | 0.00 | 0.00 | 90 | 1008.9 |
| 20260509130828 | 50 | 228 | 1.0 | 1.0 | 0.00 | 0.00 | 0.00 | 90 | 1008.8 |
| 20260509130328 | 49 | 91 | 1.0 | 1.0 | 0.00 | 0.00 | 0.00 | 91 | 1008.7 |
| 20260509125827 | 49 | 287 | 1.0 | 1.0 | 0.00 | 0.00 | 0.00 | 91 | 1008.7 |
| 20260509125327 | 49 | 260 | 1.0 | 2.0 | 0.00 | 0.00 | 0.00 | 91 | 1008.7 |
| 20260509124827 | 49 | 122 | 2.0 | 2.0 | 0.00 | 0.00 | 0.00 | 91 | 1008.7 |
| 20260509124327 | 48 | 107 | 1.0 | 1.0 | 0.00 | 0.00 | 0.00 | 91 | 1008.6 |
| 20260509123827 | 48 | 260 | 0.0 | 1.0 | 0.00 | 0.00 | 0.00 | 91 | 1008.7 |
| 20260509123327 | 47 | 31 | 0.0 | 1.0 | 0.00 | 0.00 | 0.00 | 91 | 1008.8 |
| 20260509122827 | 47 | 54 | 0.0 | 1.0 | 0.00 | 0.00 | 0.00 | 91 | 1008.8 |
| 20260509122327 | 46 | 96 | 0.0 | 0.0 | 0.00 | 0.00 | 0.00 | 91 | 1008.9 |
| 20260509121827 | 45 | 137 | 1.0 | 1.0 | 0.00 | 0.00 | 0.00 | 91 | 1009.0 |
| 20260509121327 | 44 | 243 | 2.0 | 2.0 | 0.00 | 0.00 | 0.00 | 90 | 1009.2 |
| 20260509120828 | 44 | 271 | 1.0 | 2.0 | 0.00 | 0.00 | 0.00 | 88 | 1009.3 |
| 20260509120327 | 44 | 65 | 0.0 | 1.0 | 0.00 | 0.00 | 0.00 | 88 | 1009.3 |
| 20260509115827 | 44 | 0 | 0.0 | 0.0 | 0.00 | 0.00 | 0.00 | 88 | 1009.4 |
| 20260509115328 | 44 | 202 | 1.0 | 1.0 | 0.00 | 0.00 | 0.00 | 88 | 1009.4 |
| 20260509114827 | 44 | 60 | 0.0 | 1.0 | 0.00 | 0.00 | 0.00 | 88 | 1009.4 |
| 20260509114327 | 44 | 258 | 0.0 | 0.0 | 0.00 | 0.00 | 0.00 | 87 | 1009.5 |
| 20260509113827 | 44 | 272 | 1.0 | 1.0 | 0.00 | 0.00 | 0.00 | 87 | 1009.5 |
| 20260509113327 | 44 | 310 | 0.0 | 0.0 | 0.00 | 0.00 | 0.00 | 86 | 1009.5 |
| 20260509112827 | 44 | 0 | 0.0 | 0.0 | 0.00 | 0.00 | 0.00 | 86 | 1009.5 |
| 20260509112327 | 44 | 48 | 1.0 | 1.0 | 0.00 | 0.00 | 0.00 | 86 | 1009.4 |
| 20260509111827 | 44 | 294 | 1.0 | 1.0 | 0.00 | 0.00 | 0.00 | 87 | 1009.3 |
| 20260509111327 | 43 | 259 | 1.0 | 2.0 | 0.00 | 0.00 | 0.00 | 87 | 1009.3 |
| 20260509110827 | 43 | 242 | 1.0 | 2.0 | 0.00 | 0.00 | 0.00 | 87 | 1009.4 |
| 20260509110327 | 43 | 274 | 1.0 | 1.0 | 0.00 | 0.00 | 0.00 | 87 | 1009.4 |
| 20260509105827 | 43 | 77 | 0.0 | 0.0 | 0.00 | 0.00 | 0.00 | 86 | 1009.4 |
| 20260509105327 | 43 | 103 | 0.0 | 1.0 | 0.00 | 0.00 | 0.00 | 86 | 1009.5 |
| 20260509104827 | 43 | 28 | 1.0 | 2.0 | 0.00 | 0.00 | 0.00 | 87 | 1009.5 |
| 20260509104328 | 42 | 52 | 0.0 | 1.0 | 0.00 | 0.00 | 0.00 | 86 | 1009.4 |
| 20260509103827 | 42 | 44 | 0.0 | 1.0 | 0.00 | 0.00 | 0.00 | 86 | 1009.4 |
| 20260509103327 | 42 | 236 | 1.0 | 1.0 | 0.00 | 0.00 | 0.00 | 85 | 1009.4 |
| 20260509102827 | 42 | 238 | 1.0 | 2.0 | 0.00 | 0.00 | 0.00 | 86 | 1009.4 |
| 20260509102332 | 41 | 267 | 1.0 | 2.0 | 0.00 | 0.00 | 0.00 | 87 | 1009.5 |
| 20260509101829 | 41 | 256 | 0.0 | 1.0 | 0.00 | 0.00 | 0.00 | 87 | 1009.6 |
| 20260509101327 | 41 | 51 | 0.0 | 1.0 | 0.00 | 0.00 | 0.00 | 87 | 1009.5 |
| 20260509100827 | 41 | 276 | 0.0 | 1.0 | 0.00 | 0.00 | 0.00 | 87 | 1009.5 |
| 20260509100328 | 41 | 257 | 1.0 | 2.0 | 0.00 | 0.00 | 0.00 | 87 | 1009.4 |
| 20260509095827 | 41 | 252 | 1.0 | 2.0 | 0.00 | 0.00 | 0.00 | 86 | 1009.3 |
| 20260509095327 | 41 | 260 | 1.0 | 2.0 | 0.00 | 0.00 | 0.00 | 84 | 1009.3 |
| 20260509094827 | 41 | 241 | 1.0 | 2.0 | 0.00 | 0.00 | 0.00 | 86 | 1009.3 |
| 20260509094327 | 41 | 271 | 1.0 | 2.0 | 0.00 | 0.00 | 0.00 | 86 | 1009.3 |
| 20260509093827 | 41 | 319 | 1.0 | 2.0 | 0.00 | 0.00 | 0.00 | 85 | 1009.3 |
| 20260509093327 | 41 | 48 | 1.0 | 2.0 | 0.00 | 0.00 | 0.00 | 85 | 1009.4 |
| 20260509092827 | 41 | 175 | 0.0 | 0.0 | 0.00 | 0.00 | 0.00 | 86 | 1009.4 |
| 20260509092327 | 41 | 342 | 0.0 | 1.0 | 0.00 | 0.00 | 0.00 | 86 | 1009.5 |
| 20260509091828 | 41 | 119 | 0.0 | 1.0 | 0.00 | 0.00 | 0.00 | 86 | 1009.4 |
| 20260509091327 | 41 | 270 | 1.0 | 2.0 | 0.00 | 0.00 | 0.00 | 85 | 1009.4 |
| 20260509090828 | 41 | 31 | 0.0 | 1.0 | 0.00 | 0.00 | 0.00 | 83 | 1009.5 |
| 20260509090327 | 41 | 124 | 0.0 | 1.0 | 0.00 | 0.00 | 0.00 | 86 | 1009.6 |
| 20260509085827 | 41 | 298 | 0.0 | 1.0 | 0.00 | 0.00 | 0.00 | 87 | 1009.8 |
| 20260509085328 | 40 | 264 | 1.0 | 2.0 | 0.00 | 0.00 | 0.00 | 87 | 1009.8 |
| 20260509084827 | 40 | 19 | 0.0 | 0.0 | 0.00 | 0.00 | 0.00 | 86 | 1009.9 |
| 20260509084327 | 40 | 264 | 1.0 | 2.0 | 0.00 | 0.00 | 0.00 | 87 | 1009.9 |
| 20260509083827 | 40 | 246 | 1.0 | 2.0 | 0.00 | 0.00 | 0.00 | 86 | 1010.0 |
| 20260509083327 | 40 | 263 | 0.0 | 1.0 | 0.00 | 0.00 | 0.00 | 86 | 1010.0 |
| 20260509082827 | 40 | 264 | 1.0 | 2.0 | 0.00 | 0.00 | 0.00 | 86 | 1010.1 |
| 20260509082327 | 40 | 267 | 0.0 | 1.0 | 0.00 | 0.00 | 0.00 | 85 | 1010.2 |
| 20260509081827 | 40 | 251 | 1.0 | 1.0 | 0.00 | 0.00 | 0.00 | 86 | 1010.2 |
| 20260509081327 | 40 | 247 | 1.0 | 2.0 | 0.00 | 0.00 | 0.00 | 86 | 1010.2 |
| 20260509080828 | 40 | 323 | 0.0 | 1.0 | 0.00 | 0.00 | 0.00 | 84 | 1010.3 |
| 20260509080327 | 41 | 264 | 0.0 | 1.0 | 0.00 | 0.00 | 0.00 | 83 | 1010.5 |
| 20260509075827 | 41 | 271 | 0.0 | 1.0 | 0.00 | 0.00 | 0.00 | 83 | 1010.5 |
| 20260509075327 | 41 | 244 | 0.0 | 1.0 | 0.00 | 0.00 | 0.00 | 83 | 1010.5 |
| 20260509074828 | 41 | 354 | 0.0 | 1.0 | 0.00 | 0.00 | 0.00 | 83 | 1010.5 |
| 20260509074328 | 41 | 311 | 0.0 | 0.0 | 0.00 | 0.00 | 0.00 | 83 | 1010.4 |
| 20260509073827 | 41 | 232 | 0.0 | 1.0 | 0.00 | 0.00 | 0.00 | 83 | 1010.3 |
| 20260509073327 | 41 | 262 | 1.0 | 2.0 | 0.00 | 0.00 | 0.00 | 84 | 1010.4 |
| 20260509072827 | 41 | 317 | 0.0 | 1.0 | 0.00 | 0.00 | 0.00 | 83 | 1010.3 |
| 20260509072327 | 41 | 78 | 2.0 | 4.0 | 0.00 | 0.00 | 0.00 | 83 | 1010.2 |
| 20260509071827 | 41 | 31 | 0.0 | 1.0 | 0.00 | 0.00 | 0.00 | 85 | 1010.2 |
| 20260509071327 | 41 | 39 | 0.0 | 1.0 | 0.00 | 0.00 | 0.00 | 85 | 1010.2 |
| 20260509070828 | 41 | 84 | 1.0 | 1.0 | 0.00 | 0.00 | 0.00 | 85 | 1010.1 |
| 20260509070327 | 41 | 59 | 0.0 | 1.0 | 0.00 | 0.00 | 0.00 | 86 | 1010.1 |
| 20260509065827 | 40 | 113 | 2.0 | 2.0 | 0.00 | 0.00 | 0.00 | 86 | 1010.3 |
| 20260509065327 | 41 | 297 | 1.0 | 2.0 | 0.00 | 0.00 | 0.00 | 86 | 1010.5 |
| 20260509064828 | 41 | 91 | 0.0 | 1.0 | 0.00 | 0.00 | 0.00 | 85 | 1010.4 |
| 20260509064327 | 40 | 276 | 1.0 | 2.0 | 0.00 | 0.00 | 0.00 | 86 | 1010.5 |
| 20260509063827 | 40 | 143 | 1.0 | 1.0 | 0.00 | 0.00 | 0.00 | 86 | 1010.5 |
| 20260509063327 | 40 | 267 | 2.0 | 3.0 | 0.00 | 0.00 | 0.00 | 86 | 1010.7 |
| 20260509062828 | 41 | 307 | 0.0 | 2.0 | 0.00 | 0.00 | 0.00 | 85 | 1010.8 |
| 20260509062327 | 41 | 274 | 1.0 | 2.0 | 0.00 | 0.00 | 0.00 | 85 | 1010.8 |
| 20260509061827 | 41 | 138 | 1.0 | 2.0 | 0.00 | 0.00 | 0.00 | 86 | 1010.8 |
| 20260509061329 | 41 | 263 | 1.0 | 2.0 | 0.00 | 0.00 | 0.00 | 86 | 1011.0 |
| 20260509060827 | 41 | 295 | 0.0 | 2.0 | 0.00 | 0.00 | 0.00 | 86 | 1011.0 |
| 20260509060327 | 41 | 276 | 1.0 | 2.0 | 0.00 | 0.00 | 0.00 | 86 | 1011.1 |
| 20260509055827 | 41 | 109 | 0.0 | 0.0 | 0.00 | 0.00 | 0.00 | 85 | 1011.2 |
| 20260509055327 | 41 | 270 | 2.0 | 2.0 | 0.00 | 0.00 | 0.00 | 86 | 1011.3 |
| 20260509054827 | 41 | 244 | 1.0 | 2.0 | 0.00 | 0.00 | 0.00 | 86 | 1011.3 |
| 20260509054327 | 41 | 254 | 1.0 | 2.0 | 0.00 | 0.00 | 0.00 | 85 | 1011.4 |
| 20260509053827 | 41 | 303 | 0.0 | 1.0 | 0.00 | 0.00 | 0.00 | 86 | 1011.3 |
| 20260509053327 | 41 | 288 | 1.0 | 2.0 | 0.00 | 0.00 | 0.00 | 86 | 1011.4 |
| 20260509052827 | 41 | 254 | 1.0 | 3.0 | 0.00 | 0.00 | 0.00 | 85 | 1011.5 |
| 20260509052327 | 41 | 258 | 1.0 | 2.0 | 0.00 | 0.00 | 0.00 | 85 | 1011.6 |
| 20260509051827 | 41 | 270 | 1.0 | 2.0 | 0.00 | 0.00 | 0.00 | 85 | 1011.5 |
| 20260509051327 | 41 | 221 | 1.0 | 2.0 | 0.00 | 0.00 | 0.00 | 85 | 1011.5 |
| 20260509050827 | 41 | 229 | 1.0 | 2.0 | 0.00 | 0.00 | 0.00 | 84 | 1011.5 |
| 20260509050327 | 41 | 265 | 0.0 | 1.0 | 0.00 | 0.00 | 0.00 | 84 | 1011.7 |
| 20260509045828 | 41 | 296 | 0.0 | 1.0 | 0.00 | 0.00 | 0.00 | 85 | 1011.7 |
| 20260509045327 | 41 | 275 | 1.0 | 1.0 | 0.00 | 0.00 | 0.00 | 86 | 1011.7 |
| 20260509044827 | 41 | 244 | 1.0 | 2.0 | 0.00 | 0.00 | 0.00 | 85 | 1011.6 |
| 20260509044327 | 41 | 260 | 1.0 | 2.0 | 0.00 | 0.00 | 0.00 | 85 | 1011.6 |
| 20260509043827 | 41 | 269 | 1.0 | 2.0 | 0.00 | 0.00 | 0.00 | 85 | 1011.6 |
| 20260509043327 | 41 | 250 | 2.0 | 3.0 | 0.00 | 0.00 | 0.00 | 85 | 1011.7 |
| 20260509042827 | 40 | 267 | 1.0 | 3.0 | 0.00 | 0.00 | 0.00 | 87 | 1011.8 |
| 20260509042327 | 40 | 251 | 1.0 | 2.0 | 0.00 | 0.00 | 0.00 | 86 | 1011.8 |
| 20260509041828 | 40 | 258 | 1.0 | 2.0 | 0.00 | 0.00 | 0.00 | 86 | 1011.8 |
| 20260509041327 | 40 | 242 | 1.0 | 2.0 | 0.00 | 0.00 | 0.00 | 86 | 1011.8 |
| 20260509040827 | 40 | 263 | 1.0 | 2.0 | 0.00 | 0.00 | 0.00 | 86 | 1011.8 |
| 20260509040326 | 40 | 254 | 2.0 | 3.0 | 0.00 | 0.00 | 0.00 | 87 | 1011.8 |
| 20260509035828 | 40 | 258 | 1.0 | 2.0 | 0.00 | 0.00 | 0.15 | 87 | 1011.7 |
| 20260509035328 | 39 | 178 | 1.0 | 3.0 | 0.00 | 0.00 | 0.15 | 87 | 1011.8 |
| 20260509034828 | 39 | 245 | 1.0 | 2.0 | 0.00 | 0.00 | 0.15 | 87 | 1011.8 |
| 20260509034328 | 39 | 244 | 1.0 | 2.0 | 0.00 | 0.00 | 0.15 | 88 | 1011.9 |
| 20260509033827 | 39 | 271 | 1.0 | 2.0 | 0.00 | 0.00 | 0.15 | 88 | 1012.0 |
| 20260509033327 | 39 | 277 | 0.0 | 1.0 | 0.00 | 0.00 | 0.15 | 88 | 1012.0 |
| 20260509032827 | 39 | 308 | 0.0 | 1.0 | 0.00 | 0.00 | 0.15 | 88 | 1012.0 |
| 20260509032329 | 39 | 290 | 1.0 | 1.0 | 0.00 | 0.00 | 0.15 | 89 | 1012.0 |
| 20260509031827 | 39 | 272 | 1.0 | 4.0 | 0.00 | 0.00 | 0.15 | 88 | 1012.1 |
| 20260509031327 | 39 | 334 | 0.0 | 1.0 | 0.00 | 0.00 | 0.15 | 88 | 1012.1 |
| 20260509030827 | 39 | 156 | 0.0 | 1.0 | 0.00 | 0.00 | 0.15 | 88 | 1012.2 |
| 20260509030327 | 39 | 274 | 0.0 | 1.0 | 0.00 | 0.00 | 0.15 | 88 | 1012.3 |
| 20260509025827 | 39 | 268 | 2.0 | 3.0 | 0.00 | 0.00 | 0.15 | 88 | 1012.2 |
| 20260509025327 | 39 | 273 | 2.0 | 3.0 | 0.00 | 0.00 | 0.15 | 88 | 1012.3 |
| 20260509024828 | 39 | 280 | 1.0 | 2.0 | 0.00 | 0.00 | 0.15 | 89 | 1012.3 |
| 20260509024327 | 39 | 277 | 1.0 | 2.0 | 0.00 | 0.00 | 0.15 | 89 | 1012.3 |
| 20260509023827 | 39 | 273 | 1.0 | 2.0 | 0.00 | 0.00 | 0.15 | 89 | 1012.4 |
| 20260509023327 | 39 | 304 | 1.0 | 2.0 | 0.00 | 0.00 | 0.15 | 89 | 1012.4 |
| 20260509022827 | 39 | 278 | 1.0 | 2.0 | 0.00 | 0.00 | 0.15 | 89 | 1012.4 |
| 20260509022327 | 40 | 268 | 1.0 | 2.0 | 0.00 | 0.00 | 0.15 | 89 | 1012.4 |
| 20260509021828 | 40 | 278 | 1.0 | 1.0 | 0.00 | 0.00 | 0.15 | 88 | 1012.5 |
| 20260509021327 | 40 | 272 | 1.0 | 2.0 | 0.00 | 0.00 | 0.15 | 88 | 1012.5 |
| 20260509020828 | 40 | 251 | 2.0 | 2.0 | 0.00 | 0.00 | 0.15 | 88 | 1012.5 |
| 20260509020327 | 40 | 255 | 1.0 | 2.0 | 0.00 | 0.00 | 0.15 | 87 | 1012.5 |
| 20260509015828 | 40 | 244 | 2.0 | 2.0 | 0.00 | 0.00 | 0.15 | 87 | 1012.5 |
| 20260509015327 | 41 | 252 | 2.0 | 3.0 | 0.00 | 0.00 | 0.15 | 86 | 1012.4 |
| 20260509014827 | 41 | 245 | 2.0 | 3.0 | 0.00 | 0.00 | 0.15 | 86 | 1012.3 |
| 20260509014327 | 41 | 257 | 2.0 | 2.0 | 0.00 | 0.00 | 0.15 | 86 | 1012.3 |
| 20260509013827 | 41 | 248 | 2.0 | 3.0 | 0.00 | 0.00 | 0.15 | 86 | 1012.2 |
| 20260509013327 | 41 | 254 | 2.0 | 3.0 | 0.00 | 0.00 | 0.15 | 85 | 1012.2 |
| 20260509012827 | 42 | 253 | 2.0 | 3.0 | 0.00 | 0.00 | 0.15 | 85 | 1012.1 |
| 20260509012328 | 42 | 248 | 2.0 | 3.0 | 0.00 | 0.00 | 0.15 | 85 | 1012.0 |
| 20260509011828 | 42 | 247 | 2.0 | 3.0 | 0.00 | 0.00 | 0.15 | 85 | 1012.0 |
| 20260509011327 | 42 | 245 | 2.0 | 3.0 | 0.00 | 0.00 | 0.15 | 84 | 1011.9 |
| 20260509010828 | 42 | 249 | 2.0 | 2.0 | 0.00 | 0.00 | 0.15 | 84 | 1011.9 |
| 20260509010327 | 42 | 242 | 2.0 | 3.0 | 0.00 | 0.00 | 0.15 | 84 | 1011.8 |
| 20260509005827 | 43 | 253 | 2.0 | 2.0 | 0.00 | 0.00 | 0.15 | 83 | 1011.7 |
| 20260509005327 | 43 | 245 | 2.0 | 3.0 | 0.00 | 0.00 | 0.15 | 83 | 1011.6 |
| 20260509004827 | 44 | 245 | 2.0 | 3.0 | 0.00 | 0.00 | 0.15 | 81 | 1011.6 |
| 20260509004327 | 44 | 238 | 2.0 | 3.0 | 0.00 | 0.00 | 0.15 | 79 | 1011.6 |
| 20260509003828 | 45 | 247 | 2.0 | 3.0 | 0.00 | 0.00 | 0.15 | 77 | 1011.5 |
| 20260509003327 | 45 | 249 | 2.0 | 2.0 | 0.00 | 0.00 | 0.15 | 76 | 1011.5 |
| 20260509002827 | 46 | 240 | 2.0 | 3.0 | 0.00 | 0.00 | 0.15 | 74 | 1011.4 |
| 20260509002327 | 46 | 248 | 2.0 | 3.0 | 0.00 | 0.00 | 0.15 | 72 | 1011.4 |
| 20260509001827 | 47 | 243 | 2.0 | 2.0 | 0.00 | 0.00 | 0.15 | 70 | 1011.4 |
| 20260509001328 | 48 | 239 | 2.0 | 3.0 | 0.00 | 0.00 | 0.15 | 67 | 1011.3 |
| 20260509000827 | 48 | 250 | 2.0 | 2.0 | 0.00 | 0.00 | 0.15 | 67 | 1011.3 |
| 20260509000327 | 49 | 238 | 2.0 | 2.0 | 0.00 | 0.00 | 0.15 | 64 | 1011.2 |
| 20260508235827 | 50 | 230 | 2.0 | 2.0 | 0.00 | 0.00 | 0.15 | 57 | 1011.2 |
| 20260508235327 | 50 | 240 | 1.0 | 1.0 | 0.00 | 0.00 | 0.15 | 56 | 1011.2 |
| 20260508234827 | 50 | 234 | 1.0 | 2.0 | 0.00 | 0.00 | 0.15 | 57 | 1011.1 |
| 20260508234327 | 50 | 238 | 2.0 | 2.0 | 0.00 | 0.00 | 0.15 | 58 | 1011.1 |
| 20260508233829 | 51 | 237 | 1.0 | 2.0 | 0.00 | 0.00 | 0.15 | 56 | 1011.1 |
| 20260508233327 | 51 | 218 | 1.0 | 1.0 | 0.00 | 0.00 | 0.15 | 54 | 1011.1 |
| 20260508232828 | 51 | 179 | 1.0 | 2.0 | 0.00 | 0.00 | 0.15 | 58 | 1011.1 |
| 20260508232329 | 52 | 224 | 1.0 | 2.0 | 0.00 | 0.00 | 0.15 | 55 | 1011.0 |
| 20260508231828 | 52 | 227 | 1.0 | 2.0 | 0.00 | 0.00 | 0.15 | 55 | 1011.1 |
| 20260508231327 | 53 | 145 | 0.0 | 1.0 | 0.00 | 0.00 | 0.15 | 54 | 1011.0 |
| 20260508230828 | 53 | 226 | 1.0 | 1.0 | 0.00 | 0.00 | 0.15 | 54 | 1011.0 |
| 20260508230328 | 53 | 229 | 0.0 | 1.0 | 0.00 | 0.00 | 0.15 | 53 | 1010.8 |
| 20260508225832 | 53 | 176 | 0.0 | 1.0 | 0.00 | 0.00 | 0.15 | 48 | 1010.8 |
| 20260508225327 | 53 | 279 | 1.0 | 2.0 | 0.00 | 0.00 | 0.15 | 49 | 1010.8 |
| 20260508224828 | 53 | 189 | 1.0 | 2.0 | 0.00 | 0.00 | 0.15 | 50 | 1011.2 |
| 20260508224327 | 54 | 12 | 0.0 | 1.0 | 0.00 | 0.00 | 0.15 | 50 | 1011.1 |
| 20260508223828 | 54 | 229 | 2.0 | 3.0 | 0.00 | 0.00 | 0.15 | 52 | 1011.0 |
| 20260508223327 | 54 | 242 | 1.0 | 2.0 | 0.00 | 0.00 | 0.15 | 49 | 1011.0 |
| 20260508222827 | 54 | 252 | 1.0 | 2.0 | 0.00 | 0.00 | 0.15 | 51 | 1011.0 |
| 20260508222327 | 55 | 260 | 2.0 | 4.0 | 0.00 | 0.00 | 0.15 | 46 | 1011.1 |
| 20260508221827 | 55 | 259 | 3.0 | 4.0 | 0.00 | 0.00 | 0.15 | 46 | 1011.2 |
| 20260508221328 | 56 | 246 | 2.0 | 3.0 | 0.00 | 0.00 | 0.15 | 46 | 1011.2 |
| 20260508220828 | 57 | 254 | 3.0 | 6.0 | 0.00 | 0.00 | 0.15 | 48 | 1010.8 |
| 20260508220327 | 57 | 234 | 2.0 | 3.0 | 0.00 | 0.00 | 0.15 | 45 | 1010.6 |
| 20260508215827 | 57 | 276 | 3.0 | 5.0 | 0.00 | 0.00 | 0.15 | 46 | 1010.6 |
| 20260508215328 | 57 | 261 | 2.0 | 3.0 | 0.00 | 0.00 | 0.15 | 45 | 1010.6 |
| 20260508214827 | 56 | 325 | 2.0 | 5.0 | 0.00 | 0.00 | 0.15 | 46 | 1010.6 |
| 20260508214327 | 56 | 334 | 2.0 | 3.0 | 0.00 | 0.00 | 0.15 | 48 | 1010.6 |
| 20260508213828 | 55 | 241 | 3.0 | 6.0 | 0.00 | 0.00 | 0.15 | 48 | 1010.8 |
| 20260508213328 | 56 | 271 | 2.0 | 4.0 | 0.00 | 0.00 | 0.15 | 52 | 1011.2 |
| 20260508212827 | 56 | 241 | 2.0 | 4.0 | 0.00 | 0.00 | 0.15 | 48 | 1010.8 |
| 20260508212328 | 55 | 356 | 1.0 | 2.0 | 0.00 | 0.00 | 0.15 | 52 | 1010.7 |
| 20260508211828 | 56 | 265 | 3.0 | 5.0 | 0.00 | 0.00 | 0.15 | 47 | 1011.0 |
| 20260508211327 | 56 | 250 | 4.0 | 7.0 | 0.00 | 0.00 | 0.15 | 50 | 1010.2 |
| 20260508210828 | 55 | 346 | 2.0 | 4.0 | 0.00 | 0.00 | 0.15 | 54 | 1010.4 |
| 20260508210327 | 55 | 322 | 2.0 | 4.0 | 0.00 | 0.00 | 0.15 | 50 | 1010.8 |
| 20260508205828 | 55 | 211 | 1.0 | 3.0 | 0.00 | 0.00 | 0.15 | 52 | 1010.3 |
| 20260508205327 | 54 | 287 | 1.0 | 2.0 | 0.00 | 0.00 | 0.15 | 56 | 1011.2 |
| 20260508204827 | 54 | 0 | 1.0 | 2.0 | 0.00 | 0.00 | 0.15 | 53 | 1011.7 |
| 20260508204327 | 56 | 241 | 2.0 | 5.0 | 0.00 | 0.00 | 0.15 | 50 | 1011.5 |
| 20260508203827 | 57 | 295 | 2.0 | 4.0 | 0.00 | 0.00 | 0.15 | 51 | 1010.6 |
| 20260508203328 | 56 | 290 | 4.0 | 7.0 | 0.00 | 0.00 | 0.15 | 48 | 1010.3 |
| 20260508202827 | 55 | 240 | 2.0 | 3.0 | 0.00 | 0.00 | 0.15 | 57 | 1010.1 |
| 20260508202328 | 54 | 30 | 2.0 | 2.0 | 0.00 | 0.00 | 0.15 | 59 | 1010.6 |
| 20260508201829 | 54 | 303 | 1.0 | 4.0 | 0.00 | 0.00 | 0.15 | 56 | 1011.5 |
| 20260508201327 | 54 | 284 | 1.0 | 2.0 | 0.00 | 0.00 | 0.15 | 59 | 1011.4 |
| 20260508200835 | 54 | 270 | 2.0 | 5.0 | 0.00 | 0.00 | 0.15 | 53 | 1011.3 |
| 20260508200327 | 54 | 340 | 1.0 | 2.0 | 0.00 | 0.00 | 0.15 | 56 | 1011.4 |
| 20260508195827 | 55 | 252 | 2.0 | 5.0 | 0.00 | 0.00 | 0.14 | 58 | 1011.1 |
| 20260508195327 | 54 | 310 | 2.0 | 4.0 | 0.00 | 0.00 | 0.14 | 58 | 1010.7 |
| 20260508194827 | 53 | 303 | 1.0 | 4.0 | 0.00 | 0.00 | 0.14 | 64 | 1011.3 |
| 20260508194327 | 53 | 270 | 4.0 | 5.0 | 0.00 | 0.00 | 0.14 | 60 | 1011.5 |
| 20260508193828 | 54 | 259 | 1.0 | 2.0 | 0.02 | 0.00 | 0.14 | 68 | 1012.0 |
| 20260508193328 | 55 | 321 | 2.0 | 5.0 | 0.02 | 0.00 | 0.14 | 61 | 1011.8 |
| 20260508192827 | 55 | 296 | 2.0 | 4.0 | 0.02 | 0.00 | 0.14 | 66 | 1010.8 |
| 20260508192328 | 55 | 280 | 2.0 | 4.0 | 0.02 | 0.00 | 0.14 | 64 | 1011.4 |
| 20260508191828 | 56 | 291 | 1.0 | 4.0 | 0.02 | 0.00 | 0.14 | 65 | 1010.8 |
| 20260508191328 | 54 | 286 | 2.0 | 4.0 | 0.02 | 0.00 | 0.14 | 68 | 1011.0 |
| 20260508190827 | 53 | 215 | 3.0 | 6.0 | 0.02 | 0.00 | 0.14 | 68 | 1010.7 |
| 20260508190327 | 52 | 260 | 4.0 | 11.0 | 0.02 | 0.00 | 0.14 | 68 | 1010.7 |
| 20260508185827 | 52 | 254 | 2.0 | 4.0 | 0.03 | 0.00 | 0.14 | 72 | 1011.1 |
| 20260508185327 | 51 | 254 | 2.0 | 3.0 | 0.03 | 0.00 | 0.14 | 69 | 1011.3 |
| 20260508184827 | 51 | 146 | 1.0 | 2.0 | 0.03 | 0.00 | 0.15 | 78 | 1010.7 |
| 20260508184327 | 49 | 271 | 1.0 | 2.0 | 0.03 | 0.00 | 0.15 | 82 | 1011.1 |
| 20260508183827 | 49 | 260 | 2.0 | 3.0 | 0.00 | 0.00 | 0.15 | 77 | 1012.1 |
| 20260508183327 | 49 | 248 | 2.0 | 3.0 | 0.00 | 0.00 | 0.15 | 76 | 1012.4 |
| 20260508182827 | 49 | 302 | 2.0 | 4.0 | 0.00 | 0.00 | 0.13 | 68 | 1012.3 |
| 20260508182327 | 49 | 237 | 2.0 | 5.0 | 0.00 | 0.00 | 0.13 | 67 | 1012.3 |
| 20260508181827 | 49 | 236 | 3.0 | 5.0 | 0.00 | 0.00 | 0.13 | 69 | 1012.2 |
| 20260508181327 | 49 | 269 | 2.0 | 5.0 | 0.00 | 0.00 | 0.13 | 72 | 1012.3 |
| 20260508180828 | 49 | 241 | 3.0 | 6.0 | 0.00 | 0.00 | 0.13 | 71 | 1012.5 |
| 20260508180327 | 50 | 280 | 2.0 | 4.0 | 0.00 | 0.00 | 0.13 | 69 | 1012.4 |
| 20260508175828 | 50 | 248 | 2.0 | 3.0 | 0.00 | 0.00 | 0.13 | 69 | 1012.2 |
| 20260508175327 | 50 | 259 | 1.0 | 2.0 | 0.00 | 0.00 | 0.13 | 71 | 1012.2 |
| 20260508174828 | 51 | 274 | 0.0 | 2.0 | 0.00 | 0.00 | 0.13 | 72 | 1011.9 |
| 20260508174327 | 50 | 262 | 2.0 | 5.0 | 0.00 | 0.00 | 0.13 | 70 | 1011.8 |